Regional Weather Roundup
Issued by NWS Wakefield, VA

Home | Current Version | Previous Version | Graphics & Text | Print | Product List | Glossary On
Versions: 1 2 3 4 5 6 7 8 9 10 11 12 13 14 15 16 17 18 19 20 21 22 23 24 25 26 27
000
ASUS41 KAKQ 230210
RWRAKQ

REGIONAL WEATHER ROUNDUP
NATIONAL WEATHER SERVICE WAKEFIELD VA
1000 PM EDT TUE APR 22 2014

Note: "fair" indicates few or no clouds below 12,000 feet with no
significant weather and/or obstructions to visibility. * = Denotes
station may not report precipitation (e.g., rain,snow,etc.),
thunder or fog.

VAZ042-051-052>054-056-230300-
NORTHERN VIRGINIA

CITY           SKY/WX    TMP DP  RH WIND       PRES   REMARKS
WASH NATIONAL  PTCLDY    63  52  67 N12       29.64R
DULLES         MOCLDY    59  51  75 N8        29.66R
FORT BELVOIR   PTCLDY    59  59 100 NW2       29.64R
QUANTICO       CLEAR     60  54  80 NW6       29.63R
FREDERICKSBRG* PTCLDY    62  54  74 CALM      29.62R
STAFFORD*      PTCLDY    60  55  82 CALM      29.67R
WARRENTON      CLEAR     54  54 100 W3        29.64R
CULPEPER*      PTCLDY    57  55  94 CALM      29.64S
MANASSAS*      PTCLDY    61  55  82 N6        29.65R
LEESBURG*      MOCLDY    59  54  82 N8        29.67R
WINCHESTER     PTCLDY    57  50  77 N6        29.68R
$$

VAZ048-049-060>072-079>083-230300-
CENTRAL AND SOUTH CENTRAL VIRGINIA...AND NORTH CENTRAL NORTH CAROLINA

CITY           SKY/WX    TMP DP  RH WIND       PRES   REMARKS
RICHMOND       MOCLDY    70  52  52 W7        29.62R
CHESTERFIELD*  NOT AVBL
HANOVER        MOCLDY    59  53  80 CALM      29.64R
TAPPAHANNOCK*  MOCLDY    61  53  74 CALM      29.61S
CHARLOTTSVILLE CLEAR     66  49  54 CALM      29.65R
ORANGE*        PTCLDY    63  50  63 S3        29.65S
LOUISA*        MOCLDY    64  52  63 CALM      29.63S
FARMVILLE*     MOCLDY    66  50  55 SW3       29.63R
SOUTH HILL*    CLOUDY    64  59  82 SW3       29.71R
ROANOKE RAPIDS CLOUDY    54  45  71 SW5       29.65S
RALEIGH        CLOUDY    67  53  61 W6        29.71R
$$

VAZ088>098-230300-
SOUTHEAST VIRGINIA

CITY           SKY/WX    TMP DP  RH WIND       PRES   REMARKS
NORFOLK        CLOUDY    65  53  65 S5        29.62S
VIRGINIA BEACH CLOUDY    66  50  56 CALM      29.63R
NORFOLK NAVAL  CLOUDY    68  51  54 CALM      29.64R
WEST POINT*    CLOUDY    65  58  78 CALM      29.62S
NEWPORT NEWS   CLOUDY    69  53  56 CALM      29.62S
LANGLEY AFB    CLOUDY    65  54  67 S3        29.63R
FORT EUSTIS    CLOUDY    70  56  61 SW3       29.60S
WILLIAMSBURG*    N/A     66  59  77 CALM      29.62S
FRANKLIN*      CLOUDY    68  55  64 SW3       29.63F
WAKEFIELD      CLOUDY    68  54  60 SW5       29.63S
$$

VAZ020-022-025-037-045-230300-
WESTERN AND SOUTHWEST VIRGINIA

CITY           SKY/WX    TMP DP  RH WIND       PRES   REMARKS
STAUNTON*      CLEAR     62  46  53 W6        29.69S
HOT SPRINGS VA PTCLDY    54  48  82 W10G20    29.80R
LYNCHBURG      CLEAR     68  52  56 SW5       29.69R
DANVILLE       MOCLDY    63  56  78 SW8       29.70R
MARTINSVILLE   PTCLDY    57  52  85 CALM      29.74R
ROANOKE        PTCLDY    65  49  56 W6        29.71R
BLACKSBURG     PTCLDY    61  54  77 W5        29.76S
DUBLIN*        CLEAR     58  50  73 W7        29.77R
MARION*        PTCLDY    57  56  96 W16G22    29.82R
HILLSVILLE*    CLEAR     59  52  77 NW14      29.82R
RICHLANDS*     PTCLDY    64  46  51 NW13G22   29.83R
WISE*          CLOUDY    61  43  51 NW12G21   29.88R
ABINGDON*      CLOUDY    62  58  87 W7        29.83R
$$

MDZ021>025-VAZ099-100-230300-
SOUTHERN MARYLAND AND THE DELMARVA PENINSULA

CITY           SKY/WX    TMP DP  RH WIND       PRES   REMARKS
PATUXENT RIVER MOCLDY    57  51  80 S3        29.61S
BAY BRIDGE APT PTCLDY    61  48  63 N12G20    29.64R
LEONARDTOWN    PTCLDY    59  50  72 CALM      29.64R
DOVER          MOCLDY    58  48  69 W3        29.58F
GEORGETOWN     CLOUDY    63  57  81 N5        29.62S
EASTON         NOT AVBL
CAMBRIDGE      PTCLDY    59  54  82 CALM      29.61S
SALISBURY      CLOUDY    62  53  72 CALM      29.61S
OCEAN CITY     CLOUDY    57  53  86 CALM      29.62R
WALLOPS ISLAND CLOUDY    58  53  84 CALM      29.62S
ACCOMACK*      CLOUDY    61  54  77 CALM      29.62R
$$

NCZ012>017-030>032-230300-
EASTERN NORTH CAROLINA

CITY           SKY/WX    TMP DP  RH WIND       PRES   REMARKS
ELIZABETH CITY CLOUDY    66  55  67 SW7       29.64R
AHOSKIE*       CLOUDY    64  55  70 CALM      29.66S
EDENTON*       CLOUDY    72  55  54 W5        29.66R
CURRITUCK*     CLOUDY    70  53  54 CALM      29.64S
KILL DEVIL HLS CLOUDY    65  50  58 SW6       29.63S
MANTEO         CLOUDY    63  51  66 SW6       29.65R
CAPE HATTERAS  MOCLDY    60  32  34 SW14      29.67F
GOLDSBORO      CLOUDY    72  55  56 W8        29.68R
WASHINGTON     CLOUDY    73  58  58 CALM      29.68R
GREENVILLE     CLOUDY    70  54  56 CALM      29.71R
NEW BERN       CLOUDY    71  56  58 SW6       29.69R
WILMINGTON     CLOUDY    68  58  70 SW9       29.70S
$$

VAZ048-230300-
ELSEWHERE

CITY           SKY/WX    TMP DP  RH WIND       PRES   REMARKS
HARRISBURG PA  PTCLDY    55  49  80 NW10      29.62R
BALTIMORE      LGT RAIN  57  53  86 N5        29.64S
ANNAPOLIS      PTCLDY    62  51  67 N10G21    29.63R
ANDREWS AFB    PTCLDY    59  54  83 N8        29.64R
WILMINGTON DE  MOCLDY    60  46  59 W10       29.61R
PHILADELPHIA   MOCLDY    58  48  69 SW9       29.60R
WILDWOOD NJ*     N/A    N/A N/A N/A MISG        N/A
ATLANTIC CITY  MOCLDY    58  47  66 NW7       29.59F
HENDERSON NC   CLOUDY    65  53  66 SW7       29.69R
GREENSBORO     MOCLDY    62  56  80 W7        29.73R
ROCKY MOUNT    CLOUDY    63  55  75 SW3       29.68R
FAYETTEVILLE   CLOUDY    67  56  67 SW6       29.72R
CHARLOTTE      PTCLDY    62  58  86 SW3       29.78R
$$

VAZ100-230300-
MARINE

STATION/POSITION TIME  TEMP    WIND        PRES    WAVE   SWELL
                       AIR SEA DIR/SP/G            HT/PER HT/PER
                 (UTC) (F)     (DEG/KT/KT) (MB)    (FT/S) (FT/S)
44066 TX TWR #4  0200   49 46  230/ 14/ 16 1001.5R   5/ 8   5/ 8
CAPE MAY NJ      0200   59 55  360/  3/  4 1002.7F
LEWES DE         0200   60 50   10/ 10/ 12 1002.6F
15NM E FENWICK I 0200   50 48              1003.0R   4/ 8
OCEAN-CITY-INLET 0200   54 53   CALM  /  1 1002.6S
WACHAPREAGUE VA  0200   62 63  190/  3/  8 1002.6R
THOMAS POINT MD  0200   61 54  360/ 13/ 15 1003.9R
GOOSES REEF MD   0200   57     220/  2/  2   N/A
COVE POINT MD    0200   61        CALM     1002.6R
SOLOMONS ISLAND  0200      56                N/A
BISHOPS HEAD MD  0200   61 60   60/  1/  3 1002.6R
PINEY POINT MD   0200          180/  3/  3   N/A
POTOMAC MD       0200   60     180/  4/  4 1002.3R
CAMBRIDGE MD     0200   60 57     CALM     1002.2F
LEWISETTA VA     0200   62 58   CALM  /  1 1002.7R
RAPPAHANNOCK LGT 0200          200/  3/  3 1002.9R
STINGRAY PT      0200   62      CALM  /  4 1002.8R
YORK RVR RNG VA  0200   62     170/  5/  5 1002.1R
YORKTOWN VA      0200   66 57  180/  4/  4 1002.6R
JAMESTOWN VA     0200   68     260/  6/  6   N/A
DOMINION TERM VA 0200   66     120/  3/  5 1003.1F
KIPTOPEKE VA     0200      56  100/  1/  4   N/A
CHES BAY BRIDGE  0200   63 54  190/  5/  5 1003.0R
CAPE HENRY VA    0200   66     160/  1/  2   N/A
CHESAPEAKE LGHT  0100   71      10/ 13/ 14 1003.4R
WILLOUBY STN VA  0200   67        CALM     1002.4F
S CRANEY ISL VA  0200           CALM  /  1 1003.2S
CAPE HENRY BUOY  0200      47                N/A     3/ 8
1ST LANDING BUOY 0200      53                N/A     3/ 9   3/ 9
64NM E OF VA BCH 0200   55 49  220/ 14/ 16 1002.7S   4/ 8   3/ 8
DUCK PIER NC     0200   67 48  220/ 12/ 15 1002.7R
44100 DUCK FRF   0200      52                N/A     3/ 8   2/11
44056 DUCK FRF   0200      51                N/A     3/ 8   2/11
OREGON INLET NC  0200   62 60  200/ 14/ 18 1003.9S
HATTERAS NC      0200   62 57  220/ 13/ 17 1004.9S
DIAMOND SHLS NC  0200   73 76  240/ 23/ 27 1004.1F   5/ 9   3/ 9
CAPE LOOKOUT NC  0100   64     220/ 10/ 12 1005.3S
FRYING PAN SHLS  0200   69 67  240/ 17/ 21 1006.7R   5/ 5   2/ 9
$$



USA.gov is the U.S. government's official web portal to all federal, state and local government web resources and services.